Location: Castelnau-Barbarens
(43.5760°N, 0.7244°E)
Time: 01:04:11
(UTC+02:00)

ISS - Visible Passes

Search period start: 28 July 2021 00:00
Search period end: 07 August 2021 00:00
Orbit: 419 x 421 km, 51.6° (Epoch: 27 July)

Date Brightness Start Highest point End Pass type
(mag) Time Alt. Az. Time Alt. Az. Time Alt. Az.
28 Jul -0.9 00:46:51 10° W 00:47:19 13° W 00:47:19 13° W visible
28 Jul -2.6 22:22:27 10° NW 22:25:38 36° NNE 22:28:40 11° E visible
28 Jul -2.4 23:59:17 10° WNW 00:01:37 32° WSW 00:01:37 32° WSW visible
29 Jul -3.7 23:11:53 10° WNW 23:15:15 65° SW 23:15:59 48° SSE visible
30 Jul -3.7 22:24:37 10° NW 22:28:00 79° NNE 22:30:24 18° ESE visible
31 Jul -1.1 00:02:28 10° W 00:03:22 13° WSW 00:03:22 13° WSW visible
31 Jul -2.2 23:14:34 10° W 23:17:20 23° SW 23:17:51 22° SSW visible
01 Aug -2.8 22:27:02 10° WNW 22:30:12 38° SW 22:32:25 17° SSE visible
03 Aug -1.2 22:30:22 10° W 22:32:15 14° SW 22:34:08 10° SSW visible
04 Aug -1.8 21:42:29 10° W 21:45:13 23° SW 21:47:57 10° S visible
